Regional Weather Roundup
Issued by NWS Sterling, VA

Home | Current Version | Previous Version | Text Only | Print | Product List | Glossary Off
Versions: 1 2 3 4 5 6 7 8 9 10 11 12 13 14 15 16 17 18 19 20 21 22 23 24 25 26 27 28 29 30 31 32 33 34 35 36 37 38 39 40 41 42 43 44 45 46 47 48 49 50

000
ASUS41 KLWX 272110
RWRLWX

REGIONAL WEATHER ROUNDUP
NATIONAL WEATHER SERVICE BALTIMORE MD/WASHINGTON DC
400 PM EST THU NOV 27 2014

Note: "FAIR" indicates few or no clouds below 12,000 feet
with no significant weather and/or obstructions to visibility.
 TC=TEMPERATURE CELSIUS

 * =Non NWS site. Station does not report precipitation (e.g. rain,
    snow, etc.), thunder, or fog.

DCZ001-MDZ009-015-VAZ040>042-051-053>054-272200-
WASHINGTON METRO

CITY           SKY/WX    TMP DP  RH WIND       PRES   REMARKS
WASHINGTON NAT MOCLDY    47  26  44 NW12      30.07R
DULLES         MOCLDY    41  29  62 NW12      30.07R
ANDREWS AFB    MOCLDY    44  25  48 NW13      30.05R
FT BELVOIR     MOCLDY    44  27  52 NW9G17    30.07R
QUANTICO       CLOUDY    44  28  53 N9        30.09R
COLLEGE PARK*  CLOUDY    43  28  56 N10       30.06R
LEESBURG*      CLOUDY    39  32  75 NW16G24   30.08R
GAITHERSBURG*  MOCLDY    37  28  70 NW7       30.09R

$$

MDZ006>007-011-014-272200-
BALTIMORE METRO

CITY           SKY/WX    TMP DP  RH WIND       PRES   REMARKS
BWI AIRPORT    MOCLDY    41  27  57 W10       30.05R
MD SCIENCE CTR   N/A     42  28  57 MISG      30.06R
MARTIN STATE   MOCLDY    45  30  57 NW7       30.06S
ANNAPOLIS      MOCLDY    44  28  53 NW10      30.06R
FORT MEADE*    CLOUDY    41  28  60 NW8       30.08R

$$

MDZ012-015-019>023-272200-
MARYLAND EASTERN SHORE

CITY           SKY/WX    TMP DP  RH WIND       PRES   REMARKS
OCEAN CITY     CLOUDY    42  31  64 N12       30.04R
SALISBURY      CLOUDY    44  33  65 NW9       30.04R
BAY BRIDGE AP*   N/A     43  28  56 NW8       30.06R
CAMBRIDGE*     PTCLDY    43  32  65 NW5       30.05R
EASTON*        MOCLDY    43  32  65 NW3       30.08R

$$

MDZ017>025-272200-
SOUTHERN MARYLAND

CITY           SKY/WX    TMP DP  RH WIND       PRES   REMARKS
PATUXENT RIVER PTCLDY    42  35  76 NW9       30.05S
ST INIGOES     PTCLDY    42  34  73 W3        30.05R
LEONARDTOWN*   PTCLDY    43  32  65 NW5       30.06S

$$

MDZ003>005-272200-
NORTH CENTRAL MARYLAND

CITY           SKY/WX    TMP DP  RH WIND       PRES   REMARKS
FREDERICK*     CLOUDY    41  28  60 NW6       30.10R
HAGERSTOWN APT CLOUDY    38  28  67 NW8       30.06R
WESTMINSTER*   CLOUDY    36  30  80 CALM      30.04S

$$

MDZ501>502-272200-
WESTERN MARYLAND

CITY           SKY/WX    TMP DP  RH WIND       PRES   REMARKS
OAKLAND*       CLOUDY    27 N/A N/A W8        30.00R FOG     WCI  18
CUMBERLAND*    MOCLDY    36  32  87 W6        30.12R

$$

VAZ025>031-272200-
SHENANDOAH VALLEY

CITY           SKY/WX    TMP DP  RH WIND       PRES   REMARKS
WINCHESTER*    CLOUDY    37  27  65 W7        30.07R
FRONT ROYAL*   CLOUDY    36  32  87 N5        30.07R
LURAY*         CLOUDY    37  37 100 NW5       30.07R
NEW MARKET*    CLOUDY    38  27  64 CALM      30.08R
STAUNTON*      CLOUDY    38  27  64 W7        30.09R
WAYNESBORO*    CLOUDY    37  27  67 NW6       30.06R

$$

WVZ021-048>050-054>055-272200-
EASTERN WEST VIRGINIA PANHANDLE

CITY           SKY/WX    TMP DP  RH WIND       PRES   REMARKS
MARTINSBURG    MOCLDY    40  25  55 NW5       30.07R
PETERSBURG*    CLOUDY    37  27  68 NW9       30.11R

$$

VAZ036>039-050-272200-
CENTRAL FOOTHILLS

CITY           SKY/WX    TMP DP  RH WIND       PRES   REMARKS
CHARLOTTESVILL PTCLDY    43  25  49 NW9       30.06R
CULPEPER*      MOCLDY    43  30  61 N7        30.08R
ORANGE*        CLOUDY    43  32  65 CALM      30.08R
GORDONSVILLE*  CLOUDY    43  26  50 NW7       30.06R
WARRENTON*     CLOUDY    43  35  73 NW9       30.08R

$$

VAZ055>057-272200-
NORTH AND CENTRAL PIEDMONT

CITY           SKY/WX    TMP DP  RH WIND       PRES   REMARKS
FREDERICKSBRG* MOCLDY    45  30  56 NW10G16   30.06R
STAFFORD*      CLOUDY    42  30  62 N8        30.11R

$$

NCZ024-NYZ072-PAZ021-071-VAZ022-071-272200-
OTHER REGIONAL OBSERVATIONS

CITY           SKY/WX    TMP DP  RH WIND       PRES   REMARKS
NEW YORK CITY  CLOUDY    37  30  75 MISG      30.01S
PHILADELPHIA   MOCLDY    40  28  62 NW12      30.04R
PITTSBURGH     LGT SNOW  32  28  85 NW13      30.11R FOG     WCI  22
ROANOKE        CLOUDY    38  23  55 NW21      30.14R WCI  28
RICHMOND       MOCLDY    43  38  82 N7        30.07R
RALEIGH        LGT RAIN  45  36  70 NW9G18    30.10R

$$

ANZ530>537-272200-
MARINE OBSERVATIONS

STATION/POSITION TIME  TEMP    WIND        PRES
                       AIR SEA DIR/SP/G
                 (UTC) (F)     (DEG/KT/KT) (MB)
THOMAS PT LIGHT  2100   43 47  340/  7/  8 1018.9R
BALT KEY BRIDGE  2100   42     320/ 12/ 15 1017.5R
COVE POINT       2100   42     340/  6/  8 1017.3S
LEWISETTA        2100   41 48  320/  7/  9 1017.6R
SOLOMONS ISLAND  2100      49                N/A
PINEY POINT      2100          330/  8/  8   N/A

$$



USA.gov is the U.S. government's official web portal to all federal, state and local government web resources and services.